Preview of NWS' New Version of Forecast
This preview is not operational and should not be used for support decisions.

Regional Weather Roundup (RWR)

Issued by National Weather Service (NWS)

                            
000
ASUS46 KPQR 172110
RWROR 

OREGON REGIONAL WEATHER ROUNDUP
NATIONAL WEATHER SERVICE PORTLAND OR
200 PM PDT WED APR 17 2019

NOTE: "FAIR" INDICATES FEW OR NO CLOUDS BELOW 12,000 FEET WITH
NO SIGNIFICANT WEATHER AND/OR OBSTRUCTIONS TO VISIBILITY.

ORZ001>013-172200-
NORTHWEST OREGON

  
CITY           SKY/WX    TMP DP  RH WIND       PRES   REMARKS
ASTORIA        PTSUNNY   58  50  75 SW17G24   30.33R                  
TILLAMOOK      CLOUDY    55  50  82 SW5       30.36S                  
NEWPORT        PTSUNNY   55  50  82 SW12      30.39                   
PORTLAND       CLOUDY    60  45  57 CALM      30.36S                  
VANCOUVER WA   CLOUDY    59  46  62 SE6       30.35F                  
SCAPPOOSE      CLOUDY    59  48  67 VRB5      30.35S                  
HILLSBORO      CLOUDY    59  48  67 SE7       30.35S                  
AURORA         CLOUDY    61  47  59 SW5       30.36F                  
MCMINNVILLE    CLOUDY    59  48  67 SE8       30.35S                  
SALEM          PTSUNNY   61  46  57 W8        30.34F                  
CORVALLIS      PTSUNNY   61  48  62 W5        30.36F                  
EUGENE         MOSUNNY   65  47  52 NW6       30.34F                  
$$

ORZ021-028-172200-
SOUTHWEST OREGON

  
CITY           SKY/WX    TMP DP  RH WIND       PRES   REMARKS
NORTH BEND     SUNNY     59  49  69 NW7       30.37F                  
BROOKINGS      SUNNY     61  51  70 NW12      30.30F                  
ROSEBURG       SUNNY     67  44  43 N8        30.31F                  
SEXTON SUMMIT  MOSUNNY   57  43  59 CALM      30.32S                  
GRANTS PASS    FAIR      68  43  40 CALM      30.30F                  
MEDFORD        MOSUNNY   67  36  31 CALM      30.29F                  
$$

ORZ014>016-041-172200-
COLUMBIA GORGE

  
CITY           SKY/WX    TMP DP  RH WIND       PRES   REMARKS
TROUTDALE      CLOUDY    58  47  66 N3        30.36S                  
HOOD RIVER     SUNNY     61  45  55 MISG      30.32F                  
THE DALLES     SUNNY     66  44  45 NW20G31   30.28F                  
$$

ORZ029>031-041-044-049-050-061>064-502-503-505>511-172200-
EASTERN OREGON

  
CITY           SKY/WX    TMP DP  RH WIND       PRES   REMARKS
MADRAS         SUNNY     61  41  48 NW3       30.31F                  
REDMOND        SUNNY     64  37  36 W12       30.29S                  
BEND           SUNNY     63  34  34 CALM      30.29S                  
PRINEVILLE     SUNNY     61  39  44 VRB6G16   30.29F                  
KLAMATH FALLS  MOSUNNY   61  37  41 NW6       30.29F                  
LAKEVIEW       MOSUNNY   58  36  43 VRB7      30.31F                  
HERMISTON      SUNNY     69  43  38 W17G24    30.24F                  
PENDLETON      MOSUNNY   62  41  46 W18G28    30.26F                  
JOHN DAY       SUNNY     59  42  53 W15       30.28S                  
MEACHAM        CLOUDY    49  37  63 VRB3      30.29R                  
LA GRANDE      CLOUDY    51  38  60 SE7       30.31S                  
BAKER CITY     MOSUNNY   59  39  47 W9G18     30.29R                  
BURNS          PTSUNNY   59  40  49 CALM      30.27S                  
ROME             N/A     63  35  35 SW7       30.24S                  
ONTARIO        MOSUNNY   66  39  37 N7        30.25S                  
$$